SAS105 EGKK-EHAM

Flight info

Callsign SAS105
Flight time 0h 39m
Altitude 23000
Route FRANE1M FRANE M604 GASBA M197 REDFA REDFA1A
Aircraft B736/M-SDE2E3FGHIRWXY/LB1

Departure

Time 2026-04-17 11:51
Airport London Gatwick Airport (EGKK)

Arrival

Time 2026-04-17 12:30
Airport Amsterdam Airport Schiphol (EHAM)
Time Latitude Longitude Altitude Speed Heading
2026-04-17 11:29 51.15821 -0.17690 212 ft 0 kts 347°
2026-04-17 11:42 51.15813 -0.17686 211 ft 2 kts 347°
2026-04-17 11:42 51.15800 -0.17682 207 ft 2 kts 346°
2026-04-17 11:42 51.15789 -0.17677 211 ft 2 kts 345°
2026-04-17 11:42 51.15777 -0.17672 209 ft 2 kts 347°
2026-04-17 11:43 51.15765 -0.17666 209 ft 2 kts
2026-04-17 11:43 51.15752 -0.17669 207 ft 2 kts 30°
2026-04-17 11:43 51.15742 -0.17679 211 ft 2 kts 49°
2026-04-17 11:43 51.15736 -0.17690 214 ft 0 kts 78°
2026-04-17 11:45 51.15752 -0.17558 207 ft 21 kts 90°
2026-04-17 11:46 51.15633 -0.17467 208 ft 20 kts 167°
2026-04-17 11:46 51.15497 -0.17419 206 ft 20 kts 167°
2026-04-17 11:46 51.15366 -0.17375 213 ft 19 kts 168°
2026-04-17 11:46 51.15247 -0.17303 203 ft 18 kts 123°
2026-04-17 11:47 51.15263 -0.17108 205 ft 18 kts 78°
2026-04-17 11:47 51.15289 -0.16919 211 ft 17 kts 77°
2026-04-17 11:47 51.15297 -0.16864 203 ft 0 kts 77°
2026-04-17 11:48 51.15296 -0.16864 203 ft 0 kts 79°
2026-04-17 11:48 51.15254 -0.16811 205 ft 16 kts 163°
2026-04-17 11:49 51.15125 -0.16817 205 ft 20 kts 223°
2026-04-17 11:49 51.15104 -0.16908 201 ft 0 kts 259°
2026-04-17 11:50 51.15071 -0.17138 212 ft 69 kts 255°
2026-04-17 11:51 51.14927 -0.18360 285 ft 145 kts 257°
2026-04-17 11:51 51.14758 -0.19915 1304 ft 135 kts 252°
2026-04-17 11:51 51.14532 -0.21452 2152 ft 159 kts 253°
2026-04-17 11:51 51.14255 -0.23400 2583 ft 200 kts 255°
2026-04-17 11:52 51.14007 -0.25662 3367 ft 206 kts 258°
2026-04-17 11:52 51.13783 -0.27922 4330 ft 210 kts 258°
2026-04-17 11:52 51.13581 -0.30248 5281 ft 216 kts 266°
2026-04-17 11:52 51.14022 -0.32570 6331 ft 228 kts 301°
2026-04-17 11:53 51.15246 -0.34204 7470 ft 239 kts 332°
2026-04-17 11:53 51.16919 -0.34668 8501 ft 255 kts
2026-04-17 11:53 51.18671 -0.33945 9500 ft 266 kts 16°
2026-04-17 11:53 51.20433 -0.32935 10449 ft 272 kts 16°
2026-04-17 11:54 51.22227 -0.31865 11372 ft 278 kts 17°
2026-04-17 11:54 51.24053 -0.30767 12310 ft 283 kts 17°
2026-04-17 11:54 51.25933 -0.29636 13087 ft 297 kts 17°
2026-04-17 11:54 51.27258 -0.28848 13305 ft 317 kts 17°
2026-04-17 11:55 51.29426 -0.27571 13553 ft 347 kts 17°
2026-04-17 11:55 51.32602 -0.25725 13862 ft 384 kts 17°
2026-04-17 11:55 51.35179 -0.24241 14316 ft 400 kts 17°
2026-04-17 11:55 51.37830 -0.22718 15056 ft 407 kts 17°
2026-04-17 11:56 51.39599 -0.21703 15615 ft 409 kts 17°
2026-04-17 11:56 51.42289 -0.20127 16415 ft 414 kts 18°
2026-04-17 11:56 51.45019 -0.18501 17159 ft 420 kts 18°
2026-04-17 11:56 51.47766 -0.16693 17586 ft 437 kts 23°
2026-04-17 11:57 51.50403 -0.14046 17696 ft 460 kts 41°
2026-04-17 11:57 51.52355 -0.09928 18036 ft 470 kts 65°
2026-04-17 11:57 51.53550 -0.05033 18562 ft 472 kts 72°
2026-04-17 11:57 51.54711 -0.00083 19039 ft 474 kts 68°
2026-04-17 11:58 51.56167 0.04671 19145 ft 476 kts 62°
2026-04-17 11:58 51.57843 0.09270 19164 ft 478 kts 59°
2026-04-17 11:58 51.59596 0.13811 19159 ft 478 kts 59°
2026-04-17 11:58 51.61343 0.18356 19158 ft 478 kts 59°
2026-04-17 11:59 51.63061 0.22947 19154 ft 478 kts 60°
2026-04-17 11:59 51.64739 0.27561 19162 ft 478 kts 61°
2026-04-17 11:59 51.66393 0.32211 19158 ft 477 kts 62°
2026-04-17 11:59 51.68012 0.36813 19165 ft 478 kts 62°
2026-04-17 12:00 51.69643 0.41473 19158 ft 478 kts 62°
2026-04-17 12:00 51.71275 0.46142 19154 ft 478 kts 62°
2026-04-17 12:00 51.72906 0.50802 19150 ft 477 kts 62°
2026-04-17 12:00 51.74536 0.55461 19155 ft 477 kts 62°
2026-04-17 12:01 51.76178 0.60160 19427 ft 484 kts 62°
2026-04-17 12:01 51.77832 0.64900 20074 ft 483 kts 62°
2026-04-17 12:01 51.79482 0.69633 20678 ft 485 kts 62°
2026-04-17 12:01 51.81143 0.74407 21163 ft 489 kts 62°
2026-04-17 12:02 51.82812 0.79233 21589 ft 494 kts 62°
2026-04-17 12:02 51.84385 0.84207 22023 ft 497 kts 66°
2026-04-17 12:02 51.85727 0.89370 22462 ft 499 kts 71°
2026-04-17 12:02 51.86765 0.94739 22902 ft 501 kts 78°
2026-04-17 12:03 51.87554 1.00227 23153 ft 499 kts 80°
2026-04-17 12:03 51.88278 1.05727 23165 ft 500 kts 80°
2026-04-17 12:03 51.89037 1.11146 23178 ft 502 kts 78°
2026-04-17 12:03 51.89895 1.16631 23171 ft 502 kts 77°
2026-04-17 12:04 51.90834 1.22080 23158 ft 501 kts 76°
2026-04-17 12:04 51.91826 1.27493 23153 ft 500 kts 75°
2026-04-17 12:04 51.92829 1.32886 23171 ft 499 kts 75°
2026-04-17 12:04 51.93821 1.38271 23181 ft 500 kts 75°
2026-04-17 12:05 51.94798 1.43687 23177 ft 500 kts 76°
2026-04-17 12:05 51.95760 1.49110 23166 ft 501 kts 76°
2026-04-17 12:05 51.96711 1.54537 23173 ft 501 kts 76°
2026-04-17 12:05 51.97662 1.59971 23180 ft 501 kts 76°
2026-04-17 12:06 51.98613 1.65408 23182 ft 501 kts 76°
2026-04-17 12:06 51.99556 1.70858 23181 ft 501 kts 76°
2026-04-17 12:06 52.00450 1.76318 23178 ft 501 kts 77°
2026-04-17 12:06 52.01304 1.81810 23185 ft 501 kts 78°
2026-04-17 12:07 52.02138 1.87305 23181 ft 501 kts 78°
2026-04-17 12:07 52.02971 1.92808 23176 ft 501 kts 78°
2026-04-17 12:07 52.03807 1.98307 23181 ft 501 kts 77°
2026-04-17 12:07 52.04646 2.03792 23183 ft 498 kts 77°
2026-04-17 12:08 52.05473 2.09159 22700 ft 483 kts 77°
2026-04-17 12:08 52.06285 2.14432 21665 ft 480 kts 77°
2026-04-17 12:08 52.07090 2.19672 20701 ft 475 kts 77°
2026-04-17 12:08 52.07872 2.24785 19887 ft 469 kts 77°
2026-04-17 12:09 52.08649 2.29897 19082 ft 464 kts 77°
2026-04-17 12:09 52.09418 2.34970 18260 ft 460 kts 77°
2026-04-17 12:09 52.10177 2.39991 17368 ft 456 kts 77°
2026-04-17 12:09 52.10928 2.44975 16495 ft 452 kts 77°
2026-04-17 12:10 52.11730 2.49901 15630 ft 448 kts 74°
2026-04-17 12:10 52.12863 2.54574 14787 ft 441 kts 62°
2026-04-17 12:10 52.14544 2.58693 14002 ft 434 kts 53°
2026-04-17 12:10 52.16329 2.62617 13107 ft 427 kts 55°
2026-04-17 12:11 52.17823 2.66765 12218 ft 422 kts 65°
2026-04-17 12:11 52.18819 2.71223 11376 ft 416 kts 73°
2026-04-17 12:11 52.19630 2.75713 10691 ft 410 kts 74°
2026-04-17 12:12 52.21615 2.84444 10372 ft 409 kts 65°
2026-04-17 12:12 52.22865 2.88610 10255 ft 409 kts 63°
2026-04-17 12:12 52.24147 2.92757 10206 ft 408 kts 63°
2026-04-17 12:12 52.25401 2.96892 10195 ft 407 kts 64°
2026-04-17 12:13 52.26628 3.01076 10194 ft 409 kts 65°
2026-04-17 12:13 52.27829 3.05287 10193 ft 408 kts 66°
2026-04-17 12:13 52.28993 3.09455 10195 ft 408 kts 66°
2026-04-17 12:13 52.30158 3.13678 10196 ft 408 kts 66°
2026-04-17 12:14 52.31317 3.17910 10186 ft 408 kts 66°
2026-04-17 12:14 52.32474 3.22147 10186 ft 408 kts 66°
2026-04-17 12:14 52.33630 3.26385 10187 ft 408 kts 66°
2026-04-17 12:14 52.34786 3.30629 10185 ft 408 kts 66°
2026-04-17 12:15 52.35943 3.34880 10186 ft 408 kts 66°
2026-04-17 12:15 52.37097 3.39125 10194 ft 408 kts 66°
2026-04-17 12:15 52.38249 3.43371 10193 ft 408 kts 66°
2026-04-17 12:15 52.39402 3.47626 10181 ft 408 kts 66°
2026-04-17 12:16 52.40536 3.51819 10186 ft 408 kts 66°
2026-04-17 12:16 52.41682 3.56066 10189 ft 407 kts 67°
2026-04-17 12:16 52.42826 3.60311 10202 ft 406 kts 67°
2026-04-17 12:16 52.43939 3.64446 10187 ft 387 kts 67°
2026-04-17 12:17 52.44993 3.68369 10180 ft 364 kts 67°
2026-04-17 12:17 52.45983 3.72056 10181 ft 343 kts 67°
2026-04-17 12:17 52.46913 3.75532 10190 ft 324 kts 67°
2026-04-17 12:17 52.47798 3.78842 10194 ft 311 kts 67°
2026-04-17 12:18 52.48657 3.82070 10193 ft 308 kts 68°
2026-04-17 12:18 52.49512 3.85282 10040 ft 305 kts 68°
2026-04-17 12:18 52.50358 3.88460 9647 ft 304 kts 68°
2026-04-17 12:18 52.51204 3.91645 9234 ft 304 kts 68°
2026-04-17 12:19 52.52045 3.94813 8877 ft 301 kts 68°
2026-04-17 12:19 52.52695 3.98049 8508 ft 296 kts 85°
2026-04-17 12:19 52.52789 4.01379 8226 ft 289 kts 94°
2026-04-17 12:19 52.52760 4.04651 7908 ft 285 kts 94°
2026-04-17 12:20 52.52753 4.07911 7559 ft 284 kts 92°
2026-04-17 12:20 52.52801 4.11128 7201 ft 279 kts 91°
2026-04-17 12:20 52.52867 4.14306 6743 ft 277 kts 91°
2026-04-17 12:20 52.52935 4.17465 6283 ft 276 kts 92°
2026-04-17 12:21 52.53000 4.20609 5812 ft 276 kts 92°
2026-04-17 12:21 52.53061 4.23760 5455 ft 275 kts 92°
2026-04-17 12:21 52.53120 4.26843 5136 ft 273 kts 92°
2026-04-17 12:21 52.53177 4.29955 4776 ft 272 kts 92°
2026-04-17 12:22 52.53232 4.33008 4430 ft 268 kts 92°
2026-04-17 12:22 52.53341 4.39212 3697 ft 258 kts 92°
2026-04-17 12:22 52.53391 4.42160 3211 ft 260 kts 92°
2026-04-17 12:23 52.53438 4.45127 2758 ft 265 kts 92°
2026-04-17 12:23 52.53486 4.48141 2455 ft 262 kts 92°
2026-04-17 12:23 52.53534 4.51118 2140 ft 261 kts 92°
2026-04-17 12:23 52.53581 4.54059 2009 ft 251 kts 92°
2026-04-17 12:24 52.53627 4.56855 1984 ft 238 kts 92°
2026-04-17 12:24 52.53669 4.59530 1974 ft 232 kts 92°
2026-04-17 12:24 52.53707 4.62157 1995 ft 226 kts 92°
2026-04-17 12:24 52.53745 4.64692 1965 ft 214 kts 93°
2026-04-17 12:25 52.53782 4.67030 1985 ft 195 kts 93°
2026-04-17 12:25 52.53695 4.69168 1982 ft 185 kts 112°
2026-04-17 12:25 52.52997 4.70846 2010 ft 174 kts 145°
2026-04-17 12:25 52.51975 4.71921 1992 ft 175 kts 154°
2026-04-17 12:26 52.50905 4.72901 1980 ft 176 kts 161°
2026-04-17 12:26 52.49752 4.73030 1993 ft 162 kts 196°
2026-04-17 12:26 52.48696 4.72594 1997 ft 156 kts 193°
2026-04-17 12:26 52.47644 4.72316 1992 ft 150 kts 189°
2026-04-17 12:27 52.46614 4.72160 1988 ft 149 kts 186°
2026-04-17 12:27 52.45563 4.72047 1882 ft 154 kts 186°
2026-04-17 12:27 52.44494 4.71946 1678 ft 153 kts 185°
2026-04-17 12:27 52.43452 4.71853 1474 ft 148 kts 185°
2026-04-17 12:28 52.42418 4.71758 1278 ft 151 kts 186°
2026-04-17 12:28 52.41365 4.71660 1070 ft 148 kts 186°
2026-04-17 12:28 52.40390 4.71573 903 ft 132 kts 186°
2026-04-17 12:28 52.39495 4.71490 701 ft 125 kts 186°
2026-04-17 12:29 52.38636 4.71411 551 ft 123 kts 185°
2026-04-17 12:29 52.37772 4.71322 404 ft 126 kts 185°
2026-04-17 12:29 52.36895 4.71247 214 ft 125 kts 184°
2026-04-17 12:29 52.36034 4.71180 46 ft 124 kts 184°
2026-04-17 12:30 52.35224 4.71106 -4 ft 102 kts 182°
2026-04-17 12:30 52.34635 4.71052 -2 ft 67 kts 182°
2026-04-17 12:30 52.34287 4.71147 -3 ft 43 kts 154°
2026-04-17 12:30 52.34030 4.71282 -2 ft 37 kts 184°
2026-04-17 12:31 52.33790 4.71258 -2 ft 32 kts 183°
2026-04-17 12:31 52.33578 4.71242 -2 ft 29 kts 182°
2026-04-17 12:31 52.33382 4.71225 -2 ft 27 kts 183°
2026-04-17 12:31 52.33211 4.71279 -2 ft 25 kts 137°
2026-04-17 12:32 52.33098 4.71486 -2 ft 23 kts 132°
2026-04-17 12:32 52.32990 4.71677 -2 ft 23 kts 127°
2026-04-17 12:32 52.32891 4.71870 -2 ft 22 kts 133°
2026-04-17 12:32 52.32839 4.72086 -2 ft 21 kts 85°
2026-04-17 12:33 52.32798 4.72303 -2 ft 21 kts 130°
2026-04-17 12:33 52.32703 4.72475 -2 ft 20 kts 133°
2026-04-17 12:33 52.32605 4.72630 -2 ft 19 kts 140°
2026-04-17 12:33 52.32504 4.72772 -2 ft 19 kts 138°
2026-04-17 12:34 52.32440 4.72865 -2 ft 18 kts 139°
2026-04-17 12:34 52.32344 4.72997 -2 ft 18 kts 140°
2026-04-17 12:34 52.32255 4.73130 -2 ft 17 kts 131°
2026-04-17 12:34 52.32164 4.73251 -2 ft 16 kts 140°
2026-04-17 12:35 52.32093 4.73351 -2 ft 0 kts 136°
2026-04-17 12:37 52.31398 4.74175 -2 ft 23 kts 139°
2026-04-17 12:37 52.31393 4.74426 -2 ft 23 kts 86°
2026-04-17 12:38 52.31402 4.74675 -2 ft 22 kts 86°
2026-04-17 12:38 52.31409 4.74920 -2 ft 21 kts 88°
2026-04-17 12:38 52.31416 4.75159 -2 ft 21 kts 88°
2026-04-17 12:38 52.31420 4.75312 -2 ft 20 kts 87°
2026-04-17 12:39 52.31442 4.75895 -2 ft 25 kts 85°
2026-04-17 12:39 52.31454 4.76200 -2 ft 27 kts 87°
2026-04-17 12:39 52.31462 4.76497 -2 ft 25 kts 88°